Flag for Switzerland Weather past 2 weeks in Wallisellen, Zurich, Switzerland

Now
31 °F

Chilly.


Feels Like: 27 °F
Forecast: 17 / 33 °F
Wind: 3 mph from Southeast

Location: Zurich Town / Ville.

Current Time: Dec 27, 2014 at 4:05:25 AM

Latest Report: Dec 27, 2014 at 3:00 AM


Visibility: N/A

Pressure: 30.13 "Hg

Humidity: 86%

Dew point: 27 °F

Location of WallisellenLocation

Historic Weather in Wallisellen — Graph

°F

Wallisellen temperature yesterday

Maximum temperature yesterday: 38 °F (at 2:00 PM)
Minimum temperature yesterday: 31 °F (at 9:00 PM)
Average temperature yesterday: 34 °F

Past Weeks' High & Low Weather Summary

 TemperatureHumidityPressure
High54 °F (Dec 19, 2:00 PM)96% (Dec 16, 3:00 AM)30.60 "Hg (Dec 16, 3:00 AM)
Low30 °F (Dec 27, 2:00 AM)43% (Dec 13, 1:00 PM)29.87 "Hg (Dec 12, 8:00 PM)
Average42 °F77%30.22 "Hg
* Reported Dec 12 2:00 AM — Dec 27 2:00 AM, Wallisellen, Weather by CustomWeather, © 2014

Note: Actual official high and low records may vary slightly from our data, if they occured in-between our weather recording intervals... More about our weather records

Advertising

Wallisellen weather history for previous 24 hours

 ConditionsComfort  
Time TempWeatherWind HumidityBarometerVisibility
2:00 AM
Dec 27
30 °FChilly.2 mph91%30.17 "HgN/A
1:00 AM31 °FChilly.3 mph91%30.22 "HgN/A
12:00 AM31 °FChilly.2 mph93%30.26 "HgN/A
11:00 PM
Dec 26
31 °FChilly.1 mph88%30.31 "HgN/A
9:00 PM31 °FChilly.1 mph89%30.37 "HgN/A
8:00 PM31 °FChilly.1 mph89%30.40 "HgN/A
7:00 PM32 °FPassing clouds.2 mph85%30.40 "HgN/A
6:00 PM34 °FChilly.2 mph77%30.41 "HgN/A
5:00 PM35 °FChilly.3 mph74%30.41 "HgN/A
4:00 PM36 °FChilly.5 mph75%30.42 "HgN/A
3:00 PM37 °FChilly.5 mph71%30.41 "HgN/A
2:00 PM38 °FChilly.6 mph71%30.41 "HgN/A
1:00 PM37 °FChilly.7 mph73%30.44 "HgN/A
12:00 PM36 °FChilly.9 mph76%30.46 "HgN/A
11:00 AM35 °FChilly.6 mph82%30.48 "HgN/A
10:00 AM35 °FChilly.7 mph81%30.48 "HgN/A
9:00 AM35 °FChilly.7 mph83%30.47 "HgN/A
8:00 AM34 °FChilly.7 mph84%30.47 "HgN/A
7:00 AM34 °FChilly.5 mph86%30.46 "HgN/A
6:00 AM34 °FChilly.5 mph88%30.46 "HgN/A
5:00 AM34 °FChilly.5 mph91%30.46 "HgN/A
4:00 AM33 °FChilly.3 mph93%30.47 "HgN/A
Weather by CustomWeather, © 2014

See weather overviewHow to use our weather pages